Flag for U.S.A. Weather past 2 weeks in Milwaukee, Wisconsin, U.S.A.

Now
66 °F

Drizzle. Overcast.


Feels Like: 66 °F
Forecast: 59 / 75 °F
Wind: 13 mph from South

Location: Milwaukee / Timmerman

Current Time: May 25, 2015 at 9:53:43 AM

Latest Report: May 25, 2015 at 8:45 AM


Visibility: 3 mi

Pressure: 29.79 "Hg

Humidity: 88%

Dew point: 63 °F

Location of MilwaukeeLocation

Historic Weather in Milwaukee — Graph

°F

Milwaukee temperature yesterday

Maximum temperature yesterday: 64 °F (at 9:45 AM)
Minimum temperature yesterday: 52 °F (at 2:15 AM)
Average temperature yesterday: 56 °F

Past Weeks' High & Low Weather Summary

 TemperatureHumidityPressure
High82 °F (May 17, 3:45 PM)100% (May 11, 1:15 AM)30.51 "Hg (May 11, 1:15 AM)
Low34 °F (May 13, 3:55 AM)19% (May 23, 1:45 PM)29.72 "Hg (May 11, 3:45 PM)
Average52 °F67%30.10 "Hg
* Reported May 10 8:45 AM — May 25 8:45 AM, Milwaukee, Weather by CustomWeather, © 2015

Note: Actual official high and low records may vary slightly from our data, if they occured in-between our weather recording intervals... More about our weather records

Advertising

Milwaukee weather history for previous 24 hours

 ConditionsComfort  
Time TempWeatherWind HumidityBarometerVisibility
8:45 AM
Mon, May 25
66 °FDrizzle. Overcast.13 mph88%29.79 "Hg3 mi
7:45 AM64 °FOvercast.8 mph88%29.79 "Hg10 mi
7:15 AM63 °FFog.9 mph88%29.81 "Hg4 mi
6:55 AM61 °FFog.10 mph88%29.81 "Hg4 mi
6:15 AM55 °FFog.3 mph94%29.82 "Hg2 mi
5:55 AM55 °FFog.3 mph94%29.82 "Hg2 mi
5:15 AM55 °FRain. Overcast.No wind94%29.82 "Hg1 mi
4:55 AM55 °FDrizzle. Low clouds.No wind94%29.83 "Hg2 mi
4:15 AM55 °FLight rain. Overcast.3 mph94%29.83 "Hg2 mi
3:55 AM57 °FFog.No wind88%29.83 "Hg2 mi
3:15 AM57 °FFog.No wind94%29.86 "Hg2 mi
2:55 AM57 °FLight rain. Mostly cloudy.3 mph94%29.85 "Hg2 mi
2:35 AM57 °FLight rain. Overcast.No wind88%29.86 "Hg2 mi
2:15 AM55 °FRain. Overcast.No wind94%29.87 "Hg2 mi
1:55 AM55 °FDrizzle. Overcast.No wind94%29.87 "Hg3 mi
1:35 AM55 °FLight rain. Mostly cloudy.No wind94%29.87 "Hg4 mi
1:15 AM55 °FRain. Partly cloudy.3 mph94%29.89 "Hg4 mi
12:55 AM57 °FRain. Overcast.3 mph88%29.89 "Hg5 mi
12:35 AM55 °FFog.No wind94%29.91 "Hg4 mi
12:15 AM55 °FLight rain. Mostly cloudy.6 mph88%29.91 "Hg3 mi
11:55 PM
Sun, May 24
55 °FFog.No wind88%29.91 "Hg4 mi
11:35 PM55 °FFog.No wind88%29.92 "Hg4 mi
11:15 PM54 °FRain. Partly cloudy.No wind94%29.94 "Hg4 mi
10:55 PM54 °FLight rain. Overcast.No wind94%29.94 "Hg4 mi
10:15 PM54 °FPartly cloudy.No wind94%29.93 "Hg7 mi
9:55 PM55 °FPartly cloudy.No wind88%29.94 "Hg10 mi
9:35 PM54 °FLight rain. Mostly cloudy.3 mph94%29.95 "Hg7 mi
9:15 PM54 °FLight rain. More clouds than sun.No wind94%29.95 "Hg7 mi
8:45 PM55 °FRain. Mostly cloudy.No wind88%29.95 "Hg5 mi
7:45 PM54 °FPartly sunny.5 mph94%29.97 "Hg7 mi
5:45 PM54 °FOvercast.8 mph88%30.02 "Hg7 mi
4:45 PM54 °FRain. Overcast.7 mph94%30.06 "Hg5 mi
3:45 PM57 °FLight rain. Overcast.9 mph82%30.06 "Hg7 mi
2:45 PM61 °FLight rain. Overcast.7 mph72%30.07 "Hg10 mi
1:45 PM61 °FMostly cloudy.6 mph77%30.12 "Hg10 mi
12:45 PM64 °FDrizzle. Cloudy.5 mph73%30.14 "Hg10 mi
11:45 AM64 °FLight rain. Mostly cloudy.No wind68%30.19 "Hg7 mi
10:45 AM64 °FLight rain. Cloudy.No wind68%30.19 "Hg10 mi
9:45 AM64 °FDrizzle. Cloudy.No wind60%30.18 "Hg10 mi
Weather by CustomWeather, © 2015

See weather overviewHow to use our weather pages